USA 134

Last updated on Tue Sep 22 2026 00:03:10 GMT+0000 (Coordinated Universal Time)

1 25019U 97065A 26264.43206596 -.00000060 00000+0 00000+0 0 9994 2 25019 12.8979 20.9790 0002770 263.8302 118.7942 1.00269351 33928
UTC large
Height (km)
Speed (km/s)
/
Latitude / Longitude
Inclination (degrees)
Orbital Period (minutes)
Azimuth
Elevation
Range (km)
Doppler Factor

Next 0 passes for location: London (51.5072 / 0.1276)

No passes found over London.
USA 134